Regional Weather Roundup
Issued by NWS

Home | Current Version | Previous Version | Text Only | Print | Product List | Glossary Off
Versions: 1 2 3 4 5 6 7 8 9 10 11 12 13 14 15 16 17 18 19 20 21 22 23 24 25 26 27 28 29 30 31 32 33 34 35 36 37 38 39 40 41 42 43 44 45 46 47 48 49 50

000
ASUS43 KTOP 242008
RWRKS

WEATHER ROUNDUP FOR KANSAS
NATIONAL WEATHER SERVICE GOODLAND KS
200 PM CST FRI NOV 24 2017

NOTE:  "FAIR" INDICATES FEW OR NO CLOUDS BELOW 12,000 FEET WITH NO
SIGNIFICANT WEATHER AND/OR OBSTRUCTIONS TO VISIBILITY.

KSZ001>006-013>018-027>032-041>047-242100-
NORTHWEST KANSAS

CITY           SKY/WX    TMP DP  RH WIND       PRES   REMARKS
GOODLAND       CLOUDY    70  33  25 N12       29.78S
HAYS           CLOUDY    81  33  17 NW22G35   29.66S
HILL CITY      CLOUDY    80  34  19 N29G46    29.70R
RUSSELL        CLOUDY    83  30  14 NW32G45   29.63F
$$

KSZ061>065-074>080-084>089-242100-
SOUTHWEST KANSAS

CITY           SKY/WX    TMP DP  RH WIND       PRES   REMARKS
DODGE CITY     SUNNY     78  38  23 SE6       29.69S
ELKHART        CLOUDY    81  33  17 NW13      29.72F
GARDEN CITY    PTSUNNY   75  32  20 NE10      29.70F
GREAT BEND     SUNNY     82  36  19 N13G20    29.67S
LIBERAL        CLOUDY    76  31  19 N5        29.69F
PRATT          SUNNY     77  35  21 S6        29.68S
$$

KSZ066>073-081>083-090>101-242100-
SOUTHEAST KANSAS

CITY           SKY/WX    TMP DP  RH WIND       PRES   REMARKS
CHANUTE        SUNNY     70  38  31 S17G25    29.67F
COFFEYVILLE    SUNNY     74  38  27 S12G24    29.69F
HUTCHINSON     SUNNY     82  39  21 S10       29.65F
MEDICINE LODGE   N/A     72  39  30 SE5       29.68F
NEWTON         SUNNY     76  40  27 SW17      29.65F
PARSONS        SUNNY     73  37  27 SW15G26   29.70F
WICHITA INTL   MOSUNNY   75  40  28 SW13      29.67F
WICHITA JABRA  SUNNY     74  38  27 SW13      29.66F
WICHITA MCCONL SUNNY     75  38  25 W13       29.67F
WINFIELD       SUNNY     79  39  23 W13       29.71R
$$

KSZ007>012-019>026-033>040-048>060-102>105-242100-
NORTHEAST KANSAS

CITY           SKY/WX    TMP DP  RH WIND       PRES   REMARKS
CONCORDIA      SUNNY     77  37  23 N29G44    29.61R
EMPORIA        SUNNY     78  37  22 SW20      29.61F
LAWRENCE       SUNNY     73  39  29 SW14G25   29.57F
MANHATTAN      SUNNY     79  40  24 W9        29.57F
MARYSVILLE     CLOUDY    79  39  24 NW29G38   29.56R
OLATHE IND     SUNNY     72  39  30 SW17      29.59F
OLATHE EXE     SUNNY     70  38  31 SW17G25   29.58F
SALINA         MOSUNNY   87  36  16 NW26G35   29.60F
TOPEKA BILLARD CLOUDY    77  39  25 SW13G18   29.56F
TOPEKA FORBES  CLOUDY    78  39  24 SW20      29.58R
$$




USA.gov is the U.S. government's official web portal to all federal, state and local government web resources and services.